Weather History for Dansville, NY

Change the Weather History Date:

Saturday, June 29, 2013

  Actual Average Record
Temperature  
Mean Temperature 70 °F -  
Max Temperature 79 °F 80 °F 99 °F (1949)
Min Temperature 62 °F 56 °F 42 °F (1983)
Cooling Degree Days 5    
Growing Degree Days 20 (Base 50)    
Moisture  
Dew Point 63 °F    
Average Humidity 84    
Maximum Humidity 100    
Minimum Humidity 56    
Precipitation  
Precipitation 0.23 in - - ()
Sea Level Pressure  
Sea Level Pressure 29.59 in    
Wind  
Wind Speed 3 mph (SSW)    
Max Wind Speed 10 mph    
Max Gust Speed 21 mph    
Visibility 8 miles    
Events Rain , Thunderstorm    
Averages and records for this station are not official NWS values.
T = Trace of Precipitation, MM = Missing Value Source: NWS Daily Summary

Daily Weather History Graph

Daily Weather History Graph

Search for Another Location

Airport:

Trip Planner

Search our weather history database for the weather conditions in past years. The results will help you decide how hot, cold, wet, or windy it might be!

Date:

Astronomy

Jun. 29, 2013 Rise Set
Actual Time 5:36 AM EDT 8:52 PM EDT
Civil Twilight 5:01 AM EDT 9:27 PM EDT
Nautical Twilight 4:16 AM EDT 10:12 PM EDT
Astronomical Twilight 3:21 AM EDT 11:07 PM EDT
Moon 12:11 AM EDT (6/29) 12:55 PM EDT (6/29)
Length of Visible Light 16h 25m
Length of Day
15h 16m
Waning Gibbous, 56% of the Moon is Illuminated
Jun 29
Waning Gibbous
Jun 30
Last Quarter
Jul 8
New
Jul 15
First Quarter
Jul 22
Full

Hourly Weather History & Observations

Time (EDT) Temp. Dew Point Humidity Pressure Visibility Wind Dir Wind Speed Gust Speed Precip Events Conditions
12:05 AM 64.4 °F 62.6 °F 94% 29.54 in 10.0 mi Calm Calm - N/A   Mostly Cloudy
12:24 AM 64.4 °F 62.6 °F 94% 29.53 in 10.0 mi Calm Calm - N/A   Mostly Cloudy
12:54 AM 64.9 °F 63.0 °F 93% 29.53 in 10.0 mi NW 4.6 mph - N/A   Overcast
1:54 AM 64.0 °F 63.0 °F 96% 29.54 in 9.0 mi Calm Calm - N/A   Overcast
2:54 AM 63.0 °F 62.1 °F 97% 29.54 in 4.0 mi NNW 4.6 mph - N/A   Overcast
3:12 AM 62.6 °F 62.6 °F 100% 29.52 in 1.8 mi North 3.5 mph - N/A   Overcast
3:30 AM 62.6 °F 62.6 °F 100% 29.52 in 0.8 mi Calm Calm - N/A   Mist
3:54 AM 63.0 °F 62.1 °F 97% 29.53 in 1.0 mi Calm Calm - N/A   Mist
4:40 AM 62.6 °F 62.6 °F 100% 29.52 in 3.0 mi Calm Calm - N/A   Overcast
4:54 AM 63.0 °F 62.1 °F 97% 29.54 in 9.0 mi Calm Calm - N/A   Overcast
5:18 AM 64.4 °F 62.6 °F 94% 29.53 in 7.0 mi Calm Calm - N/A   Overcast
5:34 AM 64.4 °F 62.6 °F 94% 29.53 in 10.0 mi ESE 3.5 mph - N/A   Overcast
5:54 AM 63.0 °F 62.1 °F 97% 29.55 in 10.0 mi South 4.6 mph - N/A   Mostly Cloudy
6:54 AM 64.0 °F 62.1 °F 93% 29.56 in 10.0 mi SSE 5.8 mph - N/A   Mostly Cloudy
7:54 AM 66.0 °F 63.0 °F 90% 29.56 in 10.0 mi SSE 5.8 mph - N/A   Mostly Cloudy
8:54 AM 69.1 °F 63.0 °F 81% 29.56 in 10.0 mi SE 9.2 mph - N/A   Scattered Clouds
9:08 AM 69.8 °F 62.6 °F 78% 29.54 in 10.0 mi SE 5.8 mph - N/A   Mostly Cloudy
9:54 AM 69.1 °F 64.0 °F 84% 29.57 in 6.0 mi Calm Calm - 0.01 in Rain Light Rain
10:05 AM 69.8 °F 62.6 °F 78% 29.55 in 7.0 mi South 3.5 mph - 0.01 in Rain Light Rain
10:54 AM 70.0 °F 64.0 °F 81% 29.57 in 10.0 mi ESE 3.5 mph - 0.02 in   Overcast
11:03 AM 69.8 °F 64.4 °F 83% 29.55 in 10.0 mi Variable 4.6 mph - 0.00 in Rain Light Rain
11:25 AM 69.8 °F 62.6 °F 78% 29.56 in 10.0 mi South 5.8 mph - 0.00 in   Overcast
11:33 AM 69.8 °F 64.4 °F 83% 29.56 in 10.0 mi South 4.6 mph - 0.00 in Rain Light Rain
11:43 AM 69.8 °F 62.6 °F 78% 29.55 in 10.0 mi Variable 3.5 mph - 0.00 in   Overcast
11:54 AM 72.0 °F 64.0 °F 76% 29.57 in 10.0 mi Variable 5.8 mph - 0.00 in   Overcast
12:28 PM 71.6 °F 62.6 °F 73% 29.56 in 10.0 mi Calm Calm - N/A   Overcast
12:41 PM 71.6 °F 62.6 °F 73% 29.56 in 10.0 mi SW 6.9 mph - N/A   Overcast
12:54 PM 72.0 °F 62.1 °F 71% 29.57 in 10.0 mi West 8.1 mph 20.7 mph 0.01 in   Overcast
1:54 PM 73.9 °F 64.0 °F 71% 29.58 in 10.0 mi NNW 8.1 mph - 0.00 in   Overcast
2:54 PM 75.0 °F 63.0 °F 66% 29.60 in 10.0 mi NW 9.2 mph - N/A   Mostly Cloudy
3:54 PM 77.0 °F 62.1 °F 60% 29.60 in 10.0 mi NW 10.4 mph - N/A   Partly Cloudy
4:54 PM 78.1 °F 62.1 °F 58% 29.62 in 10.0 mi NNW 9.2 mph - N/A   Partly Cloudy
5:54 PM 78.1 °F 61.0 °F 56% 29.63 in 10.0 mi NNW 9.2 mph - N/A   Partly Cloudy
6:54 PM 75.9 °F 62.1 °F 62% 29.65 in 10.0 mi NW 6.9 mph - N/A   Clear
7:54 PM 73.9 °F 64.0 °F 71% 29.67 in 10.0 mi Calm Calm - N/A   Overcast
8:16 PM 73.4 °F 64.4 °F 73% 29.66 in 10.0 mi West 5.8 mph - N/A Thunderstorm Thunderstorm
8:29 PM 69.8 °F 64.4 °F 83% 29.66 in 1.8 mi West 8.1 mph - 0.07 in Rain , Thunderstorm Heavy Thunderstorms and Rain
8:39 PM 66.2 °F 64.4 °F 94% 29.67 in 0.8 mi Calm Calm - 0.18 in Rain Heavy Rain
8:45 PM 68.0 °F 64.4 °F 88% 29.67 in 2.5 mi SSW 3.5 mph - 0.19 in Rain Light Rain
8:52 PM 68.0 °F 64.4 °F 88% 29.68 in 10.0 mi ESE 5.8 mph - 0.19 in Rain Light Rain
8:54 PM 68.0 °F 64.9 °F 90% 29.69 in 10.0 mi ESE 5.8 mph - 0.19 in Rain Light Rain
9:54 PM 66.9 °F 64.9 °F 93% 29.71 in 10.0 mi ESE 4.6 mph - 0.00 in   Mostly Cloudy
10:54 PM 66.9 °F 66.0 °F 97% 29.73 in 10.0 mi SE 5.8 mph - N/A   Overcast
11:54 PM 66.9 °F 64.9 °F 93% 29.73 in 10.0 mi Calm Calm - N/A   Overcast